[[{"header":{"parameterUnit":"m.s-1","parameterCategory":1,"la1":30.2991,"la2":30.254,"lo1":-89.0895,"lo2":-89.0444,"dy":0.0017,"dx":0.0017,"nx":28,"ny":28,"refTime":"2024-07-22T09:00:00:Z","depth":0,"parameterNumber":2,"parameterNumberName":"U-component_of_WINDS"},"data":[0,0,0,0,0,0,0,0,0,0,0,0,0,0,0,0,0,0,0,0,0,0,0,0,0,0,0,0,0,0,0,0,0,0,0,0,0,0,0,0,0,0,0,0,0,0,0,0,0,0,0,0,0,0,0,0,0,0,0.3605,0.3605,0,0.3632,0.3633,0.3633,0.3672,0.3673,0.3673,0.3674,0.37,0.37,0.37,0,0,0,0,0,0,0,0,0,0,0,0,0,0.3583,0.3583,0.3605,0.3605,0.3606,0.3632,0.3633,0.3633,0.3672,0.3673,0.3674,0.3674,0.37,0.37,0.37,0,0,0,0,0,0,0,0,0,0,0,0,0,0.3599,0.3583,0.3605,0.3628,0.3631,0.3632,0.3633,0.3633,0.3672,0.3673,0.3674,0.3675,0.37,0.37,0.37,0.368,0,0,0.37,0.37,0,0,0,0,0,0,0,0,0.3598,0.36,0.3624,0.3627,0.3629,0.365,0.3634,0.3649,0.3672,0.3656,0.3674,0.3675,0.3682,0.3684,0.3687,0.3681,0.3682,0.37,0.37,0.37,0.37,0,0,0,0,0,0,0,0.3597,0.3599,0.3616,0.3625,0.3628,0.3636,0.364,0.3637,0.3663,0.3657,0.366,0.3663,0.3684,0.3686,0.3687,0.3683,0.37,0.37,0.37,0.37,0.366,0.3659,0,0,0,0,0,0,0.3593,0.3598,0.3615,0.3617,0.3616,0.3636,0.364,0.3642,0.3663,0.3667,0.3662,0.3665,0.3686,0.3687,0.3688,0.3665,0.37,0.37,0.37,0.3661,0.366,0.3659,0,0,0,0,0,0,0.3592,0.3594,0.3614,0.3608,0.3611,0.3635,0.3638,0.3642,0.3645,0.3667,0.3671,0.3661,0.3687,0.3688,0.3681,0.3666,0.37,0.37,0.3662,0.3661,0.3659,0.3619,0,0,0,0,0,0,0.3591,0.3594,0.3587,0.3608,0.3611,0.3607,0.3637,0.3642,0.3645,0.3649,0.3666,0.367,0.3688,0.3681,0.3681,0.3667,0.37,0.3664,0.3662,0.366,0.3621,0.3616,0.3611,0,0,0,0,0,0.3591,0.3574,0.3587,0.3588,0.3604,0.3606,0.3608,0.3629,0.3644,0.3637,0.3651,0.367,0.3668,0.368,0.3681,0.3666,0.3665,0.3662,0.366,0.3624,0.3617,0.3611,0,0,0,0,0,0,0.3551,0.3578,0.3591,0.3582,0.3591,0.3613,0.3605,0.3622,0.3627,0.363,0.3655,0.3658,0.3648,0.3657,0.3669,0.3647,0.3669,0.3667,0.3641,0.3635,0.363,0.3627,0.37,0,0,0,0,0,0.3541,0.3542,0.3565,0.3554,0.3558,0.358,0.3582,0.3598,0.3608,0.3612,0.3626,0.3635,0.3636,0.3636,0.3639,0.3623,0.3626,0.3613,0.3608,0.3604,0.3601,0.3591,0.3585,0.365,0.365,0.365,0,0,0.3521,0.3536,0.3534,0.3546,0.3556,0.3554,0.3584,0.3581,0.358,0.3612,0.3606,0.3616,0.3627,0.3615,0.3611,0.3622,0.3584,0.3601,0.3597,0.3596,0.3588,0.3581,0.3576,0.3649,0.3649,0.3649,0,0,0.3483,0.3495,0.3486,0.3495,0.3509,0.3524,0.3521,0.354,0.3548,0.3543,0.3566,0.3564,0.3567,0.3573,0.3577,0.354,0.3557,0.354,0.3512,0.3503,0.3497,0.3493,0.3478,0.3472,0.3538,0.3538,0.3538,0,0.3455,0.3455,0.3479,0.3475,0.3479,0.3508,0.3499,0.3506,0.3519,0.352,0.3534,0.3536,0.3546,0.3535,0.3526,0.3529,0.3526,0.3538,0.3496,0.3492,0.3488,0.3474,0.3468,0.3535,0.3536,0.3536,0.3536,0,0.342,0.3419,0.341,0.3423,0.3426,0.3419,0.3441,0.3441,0.3456,0.3468,0.3461,0.3474,0.3479,0.3478,0.3493,0.3469,0.3475,0.3492,0.3515,0.3479,0.3466,0.3461,0.3532,0.3533,0.3534,0.3534,0,0,0.3357,0.3383,0.3379,0.3384,0.3401,0.3401,0.3394,0.34,0.3398,0.3407,0.3401,0.3402,0.3417,0.3421,0.3437,0.3428,0.3396,0.3446,0.3447,0.3434,0.3367,0.3353,0.3346,0.3408,0.3407,0.3406,0.3366,0,0.3321,0.3312,0.3333,0.3319,0.3317,0.3345,0.3339,0.3348,0.336,0.3359,0.3372,0.3372,0.3393,0.3395,0.3389,0.3401,0.3382,0.3405,0.34,0.34,0.3395,0.334,0.3325,0.3286,0.3361,0.336,0.3359,0,0.3277,0.3283,0.3268,0.3285,0.3285,0.328,0.3285,0.3285,0.3295,0.3305,0.3309,0.3327,0.332,0.3343,0.3333,0.3348,0.3348,0.3354,0.3353,0.3351,0.3376,0.3335,0.3275,0.3268,0.3352,0.3353,0.3353,0,0.323,0.3235,0.3226,0.323,0.325,0.3245,0.3252,0.3264,0.3265,0.327,0.3271,0.3275,0.3276,0.3278,0.3296,0.3312,0.3283,0.3308,0.3289,0.3288,0.328,0.328,0.3217,0.3284,0.3284,0.3284,0.3284,0,0.3186,0.3175,0.3205,0.3199,0.3188,0.3212,0.3199,0.321,0.3219,0.3215,0.324,0.3235,0.326,0.3258,0.3272,0.3261,0.3262,0.3267,0.3271,0.3264,0.3263,0.3263,0.3265,0.3282,0.3283,0.3283,0.3283,0,0.3131,0.315,0.3142,0.3162,0.3166,0.3156,0.3172,0.3167,0.318,0.3175,0.3175,0.3195,0.3194,0.3212,0.3215,0.3224,0.3205,0.3215,0.3202,0.3204,0.3182,0.3183,0.3115,0.3106,0.318,0.318,0.3179,0,0.31,0.3093,0.3111,0.311,0.3117,0.3116,0.3117,0.314,0.314,0.3151,0.3144,0.3144,0.3146,0.3142,0.3156,0.3157,0.3165,0.3142,0.3166,0.3158,0.3162,0.3162,0.316,0.3136,0.3135,0.3134,0.3133,0,0.3044,0.3054,0.3055,0.3059,0.306,0.3065,0.3071,0.3069,0.3093,0.3092,0.3091,0.3092,0.3094,0.3094,0.3098,0.3105,0.3122,0.3126,0.3121,0.3113,0.3105,0.3107,0.3185,0.3127,0.3128,0.3128,0.3128,0.3129,0.2999,0.2992,0.3004,0.3004,0.3011,0.3016,0.3011,0.3024,0.3024,0.3027,0.3041,0.3037,0.3046,0.3053,0.3058,0.3054,0.3066,0.306,0.3058,0.3055,0.305,0.3107,0.3056,0.3056,0.3056,0.3056,0.3056,0,0.2941,0.295,0.295,0.2957,0.2957,0.2975,0.2982,0.2981,0.2977,0.2984,0.2985,0.2983,0.2982,0.2997,0.2997,0.2991,0.2999,0.2991,0.299,0.2991,0.3041,0.3044,0.2984,0.2984,0.2984,0.2984,0.2984,0.2984,0.2911,0.2901,0.2912,0.2905,0.2914,0.291,0.2912,0.2916,0.2922,0.2918,0.2918,0.2928,0.2937,0.2939,0.2938,0.2943,0.2941,0.2929,0.2935,0.2981,0.2988,0.2994,0.2997,0.2929,0.2928,0.2885,0.2885,0.2885]},{"header":{"parameterUnit":"m.s-1","parameterCategory":1,"la1":30.2991,"la2":30.254,"lo1":-89.0895,"lo2":-89.0444,"dy":0.0017,"dx":0.0017,"nx":28,"ny":28,"refTime":"2024-07-22T09:00:00:Z","depth":0,"parameterNumber":3,"parameterNumberName":"V-component_of_WINDS"},"data":[0,0,0,0,0,0,0,0,0,0,0,0,0,0,0,0,0,0,0,0,0,0,0,0,0,0,0,0,0,0,0,0,0,0,0,0,0,0,0,0,0,0,0,0,0,0,0,0,0,0,0,0,0,0,0,0,0,0,2.1734,2.1734,0,2.1758,2.1758,2.1758,2.1724,2.1723,2.1722,2.172,2.1745,2.1746,2.1748,0,0,0,0,0,0,0,0,0,0,0,0,0,2.1657,2.1659,2.1734,2.1734,2.1734,2.1758,2.1758,2.1758,2.1724,2.1723,2.1721,2.172,2.1744,2.1746,2.1748,0,0,0,0,0,0,0,0,0,0,0,0,0,2.1687,2.1659,2.1734,2.172,2.1719,2.1757,2.1758,2.1758,2.1725,2.1723,2.1721,2.1719,2.1743,2.1746,2.1749,2.1801,0,0,2.1757,2.1758,0,0,0,0,0,0,0,0,2.1685,2.1689,2.1722,2.1721,2.172,2.1736,2.174,2.1773,2.1725,2.1723,2.172,2.1718,2.1743,2.1746,2.1754,2.1802,2.1803,2.1757,2.1758,2.176,2.176,0,0,0,0,0,0,0,2.1683,2.1688,2.1743,2.1722,2.1721,2.1712,2.1715,2.1746,2.1743,2.1723,2.172,2.1723,2.1742,2.1752,2.1754,2.1804,2.1757,2.1759,2.1761,2.1762,2.1894,2.1895,0,0,0,0,0,0,2.1683,2.1687,2.1742,2.1744,2.1698,2.1715,2.1718,2.1733,2.1742,2.1742,2.1725,2.1722,2.1748,2.1751,2.1755,2.1816,2.176,2.1762,2.1764,2.1892,2.1894,2.1896,0,0,0,0,0,0,2.1681,2.1688,2.1741,2.1715,2.1721,2.1718,2.1736,2.1734,2.1743,2.1744,2.1743,2.1735,2.1747,2.1751,2.1789,2.1816,2.1763,2.1766,2.189,2.1892,2.1895,2.1939,0,0,0,0,0,0,2.1679,2.1688,2.1708,2.1715,2.1722,2.1776,2.1737,2.1736,2.1748,2.1744,2.1753,2.1753,2.1746,2.1786,2.1792,2.1819,2.1768,2.1887,2.1891,2.1894,2.1935,2.1943,2.1949,0,0,0,0,0,2.1676,2.172,2.1709,2.1716,2.1748,2.1778,2.1781,2.1772,2.175,2.177,2.1771,2.1753,2.1812,2.179,2.1797,2.1825,2.1885,2.189,2.1894,2.1931,2.1941,2.1949,0,0,0,0,0,0,2.1716,2.1721,2.1709,2.1756,2.1767,2.1772,2.1797,2.1783,2.18,2.1795,2.1783,2.1785,2.1825,2.1829,2.1804,2.1875,2.1845,2.1851,2.1871,2.188,2.1888,2.1885,2.177,0,0,0,0,0,2.173,2.1754,2.1757,2.1798,2.1804,2.18,2.1812,2.1804,2.1814,2.1819,2.1821,2.1832,2.1853,2.1867,2.1886,2.1935,2.1936,2.1958,2.1965,2.1971,2.1976,2.2,2.2009,2.191,2.191,2.191,0,0,2.176,2.1765,2.1781,2.1806,2.1813,2.1838,2.1804,2.1831,2.1849,2.1823,2.1858,2.1861,2.1872,2.1915,2.1934,2.1919,2.2003,2.1976,2.1981,2.1983,2.2006,2.2015,2.2023,2.1913,2.1913,2.1912,0,0,2.1826,2.1833,2.1867,2.1875,2.1886,2.1883,2.1891,2.1898,2.1898,2.1934,2.1914,2.1935,2.1971,2.1979,2.1988,2.2055,2.2039,2.2062,2.21,2.2124,2.2132,2.2138,2.2161,2.2169,2.2067,2.2067,2.2068,0,2.1862,2.1898,2.1887,2.1915,2.1926,2.1903,2.1937,2.1945,2.1962,2.1969,2.1952,2.1996,2.2002,2.2046,2.2062,2.2071,2.2079,2.2061,2.2131,2.2138,2.2144,2.2166,2.2174,2.207,2.207,2.2069,2.2069,0,2.194,2.1965,2.1991,2.2008,2.2021,2.2053,2.2045,2.2061,2.2051,2.2049,2.2084,2.209,2.211,2.2119,2.2111,2.2162,2.2152,2.2134,2.2103,2.2157,2.2176,2.2185,2.2074,2.2073,2.2072,2.2071,0,0,2.2033,2.2041,2.2051,2.2057,2.2067,2.2086,2.2115,2.2134,2.2146,2.2158,2.2182,2.2213,2.2195,2.2205,2.2197,2.2218,2.2269,2.2197,2.2197,2.2209,2.2324,2.2337,2.2347,2.2258,2.226,2.2261,2.2322,0,2.2097,2.2148,2.2138,2.2188,2.221,2.2187,2.2213,2.2221,2.222,2.2238,2.2236,2.2258,2.2234,2.224,2.2259,2.2259,2.2292,2.2254,2.2279,2.228,2.2276,2.2357,2.2371,2.2429,2.233,2.2331,2.2332,0,2.218,2.2194,2.2246,2.225,2.2259,2.2282,2.2297,2.2316,2.2324,2.2321,2.2332,2.2319,2.2347,2.2317,2.2355,2.2329,2.2339,2.234,2.2342,2.2343,2.2309,2.236,2.2447,2.2455,2.2345,2.2344,2.2343,0,2.2241,2.2273,2.2307,2.2314,2.232,2.2336,2.234,2.2346,2.2357,2.2371,2.2378,2.2394,2.2403,2.2416,2.2407,2.2386,2.2446,2.2416,2.2444,2.2444,2.2457,2.2456,2.2547,2.2465,2.2465,2.2465,2.2465,0,2.2314,2.2346,2.2334,2.2355,2.239,2.2378,2.2412,2.2413,2.2419,2.2439,2.2421,2.244,2.2428,2.2446,2.244,2.2471,2.2476,2.2474,2.2472,2.2475,2.2475,2.2481,2.2476,2.2467,2.2467,2.2466,2.2466,0,2.2387,2.2381,2.2417,2.2419,2.2421,2.2446,2.2448,2.2467,2.2464,2.2489,2.2495,2.249,2.251,2.2503,2.2525,2.252,2.256,2.2553,2.2557,2.2555,2.2583,2.258,2.2679,2.2691,2.2603,2.2604,2.2605,0,2.2434,2.2458,2.2463,2.2474,2.2479,2.2499,2.251,2.2498,2.251,2.2521,2.2538,2.2557,2.2571,2.2604,2.2602,2.2618,2.2611,2.2644,2.2613,2.2615,2.261,2.2608,2.261,2.265,2.2651,2.2652,2.2653,0,2.2517,2.2512,2.2529,2.2544,2.2557,2.2568,2.2578,2.2589,2.2578,2.2592,2.2612,2.2623,2.2644,2.2662,2.2677,2.2679,2.2664,2.2663,2.267,2.2673,2.2674,2.2673,2.2573,2.266,2.266,2.2659,2.2659,2.2658,2.2578,2.2597,2.2603,2.2621,2.2627,2.2636,2.2653,2.2652,2.2668,2.2685,2.2677,2.27,2.2706,2.2723,2.2728,2.2745,2.2732,2.2743,2.2746,2.2748,2.2751,2.2672,2.2748,2.2748,2.2748,2.2747,2.2747,0,2.2658,2.266,2.2677,2.2691,2.2705,2.2689,2.2698,2.2711,2.2731,2.2738,2.2752,2.2774,2.2791,2.279,2.2806,2.282,2.2813,2.2824,2.2823,2.2823,2.2763,2.2754,2.2829,2.2829,2.2829,2.2829,2.2829,2.2829,2.2702,2.2733,2.2729,2.2762,2.2764,2.2786,2.2793,2.28,2.2806,2.2831,2.2845,2.2844,2.2847,2.2863,2.2877,2.2876,2.2882,2.2896,2.2893,2.2836,2.2828,2.282,2.2812,2.2898,2.2898,2.2951,2.2952,2.2952]}]]